Regional Weather Roundup
Issued by NWS

Home | Current Version | Previous Version | Graphics & Text | Print | Product List | Glossary On
Versions: 1 2 3 4 5 6 7 8 9 10 11 12 13 14 15 16 17 18 19 20 21 22 23 24 25 26 27 28 29 30 31 32 33 34 35 36 37 38 39 40 41 42 43 44 45 46 47 48 49 50
735
ASUS43 KIND 250409
RWRIN

WEATHER ROUNDUP FOR INDIANA
NATIONAL WEATHER SERVICE INDIANAPOLIS IN
1200 AM EDT SUN JUN 25 2017

NOTE: "FAIR" INDICATES FEW OR NO CLOUDS BELOW 12,000 FEET WITH NO
SIGNIFICANT WEATHER AND/OR OBSTRUCTIONS TO VISIBILITY.

* - STATION DOES NOT REPORT WEATHER SUCH AS PRECIPITATION OR FOG.

+ - STATION NOT QUALITY CONTROLLED BY THE NATIONAL WEATHER SERVICE.
    USE DATA WITH CAUTION...ESPECIALLY DEWPOINT AND RELATIVE
    HUMIDITY OBSERVATIONS.

INZ001>003-010>013-019-020-250500-
NORTHWEST INDIANA

CITY           SKY/WX    TMP DP  RH WIND       PRES   REMARKS
GARY /AIRPORT/ MOCLDY    62  44  52 CALM      30.07S
KNOX *+        PTCLDY    55  39  54 S3        30.08S
LA PORTE +     MOCLDY    59  50  73 SW3       30.08S
MICHIGAN CITY+ CLOUDY    61  50  67 CALM      30.06F
MONTICELLO +   CLEAR     60  48  65 SW5       30.10R
VALPARAISO     PTCLDY    62  46  55 CALM      30.07F

$$

LMZ046-743>745-250500-
SOUTHERN LAKE MICHIGAN

STATION/POSITION TIME  TEMP    WIND        PRES    WAVE
                       AIR SEA DIR/SP/G            HT
                 (UTC) (F)     (DEG/KT/KT) (MB)    (FT)
BURNS HARBOR     0340   68     260/  7/  8 1018.3S
MICHIGAN CITY    0340   67     270/  7/  8   N/A
5NW MICH CITY    0400   67 67  310/ 12/ 16   N/A     3

$$

INZ004-005-014>016-021>024-250500-
NORTH CENTRAL INDIANA

CITY           SKY/WX    TMP DP  RH WIND       PRES   REMARKS
GOSHEN         CLEAR     59  46  62 W7        30.07R
LOGANSPORT +   CLEAR     55  48  76 SW7       30.11R
PERU/GRISSOM   CLEAR     58  49  71 SW6       30.08R
ROCHESTER +    CLEAR     63  46  55 CALM      30.09S
SOUTH BEND     MOCLDY    59  48  67 SW6       30.07S
WARSAW +       CLEAR     59  46  63 W6        30.08S

$$

INZ006>009-017-018-025>027-250500-
NORTHEAST INDIANA

CITY           SKY/WX    TMP DP  RH WIND       PRES   REMARKS
AUBURN +       PTCLDY    63  50  63 W3        30.07R
FORT WAYNE     PTCLDY    63  49  60 W10       30.08R
HUNTINGTON +   PTCLDY    60  48  64 W7        30.09R
KENDALLVILLE + MOCLDY    61  50  67 W7        30.07R

$$

INZ028-029-035-036-043>045-051>053-250500-
WEST CENTRAL INDIANA

CITY           SKY/WX    TMP DP  RH WIND       PRES   REMARKS
CRAWFORDSVL +  CLEAR     55  53  93 CALM      30.13S
GREENCASTLE +  CLEAR     57  52  82 CALM      30.15R
LAFAYETTE      CLEAR     57  51  80 CALM      30.11R
TERRE HAUTE    CLEAR     61  51  70 CALM      30.15R

$$

INZ030>032-037>040-046>048-054>057-064-065-250500-
CENTRAL INDIANA

CITY           SKY/WX    TMP DP  RH WIND       PRES   REMARKS
CP ATTERBURY + PTCLDY    57  54  88 SW3       30.14R
FRANKFORT +    CLEAR     59  52  76 W6        30.14R
GREENWOOD *+   CLEAR     63  49  60 W3        30.14R
INDIANAPOLIS   PTCLDY    62  50  64 W8        30.13R
-EAGLE CREEK   CLEAR     63  50  62 NW8       30.12R
KOKOMO +       CLEAR     62  48  60 W8        30.11S
MARION +       CLEAR     59  48  67 W7        30.11R
MT COMFORT *+  PTCLDY    59  50  72 W6        30.13R
SHELBYVILLE    CLEAR     65  48  54 W8        30.12R
ZIONSVILLE +   PTCLDY    60  47  62 W6        30.14R

$$

INZ033-034-041-042-049-050-058-059-250500-
EAST CENTRAL INDIANA

CITY           SKY/WX    TMP DP  RH WIND       PRES   REMARKS
MUNCIE         CLEAR     63  50  62 W6        30.10S
RICHMOND +     CLEAR     57  50  77 W6        30.11F

$$

INZ060-061-067>069-081>083-085>088-250500-
SOUTHWEST INDIANA

CITY           SKY/WX    TMP DP  RH WIND       PRES   REMARKS
EVANSVILLE     CLEAR     66  52  60 W6        30.17R
HUNTINGBURG *+ CLEAR     61  57  87 CALM      30.16R
WASHINGTON +   PTCLDY    60  53  76 W6        30.15S

$$

INZ062-063-066-070>080-084-089>092-250500-
SOUTH CENTRAL AND SOUTHEAST INDIANA

CITY           SKY/WX    TMP DP  RH WIND       PRES   REMARKS
BEDFORD +      CLEAR     61  52  72 W5        30.14R
BLOOMINGTON    CLEAR     61  50  67 CALM      30.14R
MADISON *+     CLOUDY    61  55  82 CALM      30.15R
NORTH VERNON + CLEAR     63  54  72 W5        30.13R
SEYMOUR +      CLEAR     63  55  77 W7        30.13R

$$





USA.gov is the U.S. government's official web portal to all federal, state and local government web resources and services.